Location: Newark
(34.9500°N, 139.9667°E)
Time: 14:38:41
(UTC+00:00)

Vanguard 1 Rocket - Pass Details

Date: 15 December 2019
Orbit: 650 x 4226 km, 34.3° (Epoch: 25 January)

Event Time Altitude Azimuth Distance (km) Brightness Sun altitude
Rises 10:50:14 0° 249° (WSW) 8,374 13.1 -40.2°
Reaches altitude 10° 10:56:26 10° 248° (WSW) 7,122 12.5 -41.4°
Enters shadow 11:18:09 79° 189° (S) 2,734 9.5 -45.9°
Maximum altitude 11:18:45 80° 166° (SSE) 2,681 - -46.0°
Drops below altitude 10° 11:30:10 10° 82° (E) 3,983 - -48.3°
Sets 11:32:36 0° 81° (E) 4,651 - -48.8°
